Location: Audinghen
(50.8518°N, 1.6129°E)
Time: 21:47:12
(UTC+00:00)

Cosmos 2034 Rocket - Pass Details

Date: 07 August 2020
Orbit: 958 x 1000 km, 82.9° (Epoch: 21 September)

Event Time Altitude Azimuth Distance (km) Brightness Sun altitude
Exits shadow 00:35:49 41° 163° (SSE) 1,394 4.4 -22.3°
Maximum altitude 00:38:04 68° 95° (E) 1,054 4.1 -22.3°
Drops below altitude 10° 00:44:20 10° 14° (NNE) 2,761 7.5 -22.1°
Sets 00:46:53 0° 12° (NNE) 3,719 8.6 -22.0°
